Flag for France Weather past 2 weeks in Bastia, Corsica, France

Now
81 °F

Passing clouds.


Feels Like: 84 °F
Forecast: 69 / 81 °F
Wind: 7 mph from East

Location: Bastia Airport

Current Time: Aug 2, 2015 at 11:07:00 AM

Latest Report: Aug 2, 2015 at 10:30 AM


Visibility: N/A

Pressure: 29.98 "Hg

Humidity: 70%

Dew point: 70 °F

Location of BastiaLocation

Historic Weather in Bastia — Graph

°F

Bastia temperature yesterday

Maximum temperature yesterday: 88 °F (at 2:30 PM)
Minimum temperature yesterday: 70 °F (at 11:30 PM)
Average temperature yesterday: 77 °F

Past Weeks' High & Low Weather Summary

 TemperatureHumidityPressure
High91 °F (Jul 18, 3:30 PM)94% (Jul 24, 1:30 AM)30.04 "Hg (Jul 24, 1:30 AM)
Low68 °F (Aug 2, 5:30 AM)32% (Jul 26, 6:00 AM)29.71 "Hg (Jul 27, 7:00 PM)
Average81 °F68%29.85 "Hg
* Reported Jul 18 10:00 AM — Aug 2 10:00 AM, Bastia, Weather by CustomWeather, © 2015

Note: Actual official high and low records may vary slightly from our data, if they occured in-between our weather recording intervals... More about our weather records

Advertising

Bastia weather history for previous 24 hours

 ConditionsComfort  
Time TempWeatherWind HumidityBarometerVisibility
10:00 AM
Sun, Aug 2
81 °FPassing clouds.3 mph66%29.98 "HgN/A
9:30 AM79 °FPassing clouds.2 mph65%29.98 "HgN/A
9:00 AM77 °FPassing clouds.6 mph69%29.98 "HgN/A
8:30 AM75 °FPassing clouds.3 mph74%29.98 "HgN/A
8:00 AM72 °FPassing clouds.6 mph78%29.98 "HgN/A
7:30 AM70 °FPassing clouds.8 mph83%29.95 "HgN/A
7:00 AM70 °FPassing clouds.3 mph83%29.95 "HgN/A
6:30 AM70 °FPassing clouds.5 mph83%29.95 "HgN/A
6:00 AM68 °FPassing clouds.5 mph88%29.95 "HgN/A
5:30 AM68 °FPassing clouds.3 mph88%29.95 "HgN/A
5:00 AM70 °FPassing clouds.3 mph83%29.95 "HgN/A
4:30 AM70 °FPassing clouds.6 mph83%29.95 "HgN/A
4:00 AM70 °FClear.6 mph83%29.98 "Hg10 mi
3:30 AM70 °FClear.6 mph83%29.98 "Hg10 mi
3:00 AM72 °FClear.5 mph78%29.98 "Hg10 mi
2:30 AM72 °FClear.7 mph83%29.98 "Hg10 mi
2:00 AM72 °FPassing clouds.9 mph83%29.98 "HgN/A
1:30 AM72 °FPassing clouds.3 mph83%29.98 "HgN/A
1:00 AM70 °FClear.3 mph88%29.98 "Hg10 mi
12:30 AM70 °FClear.2 mph94%29.98 "Hg10 mi
12:00 AM70 °FClear.1 mph94%29.95 "Hg10 mi
11:30 PM
Sat, Aug 1
70 °FPassing clouds.No wind94%29.95 "HgN/A
11:00 PM72 °FPassing clouds.3 mph88%29.95 "HgN/A
10:30 PM72 °FPassing clouds.3 mph94%29.92 "HgN/A
10:00 PM73 °FPartly cloudy.3 mph89%29.92 "HgN/A
9:30 PM73 °FScattered clouds.2 mph78%29.92 "HgN/A
9:00 PM73 °FScattered clouds.5 mph89%29.89 "HgN/A
8:30 PM75 °FScattered clouds.7 mph74%29.89 "HgN/A
8:00 PM75 °FScattered clouds.8 mph74%29.89 "HgN/A
7:30 PM77 °FScattered clouds.7 mph65%29.89 "HgN/A
7:00 PM77 °FBroken clouds.6 mph74%29.89 "HgN/A
6:30 PM75 °FSprinkles. Broken clouds.8 mph89%29.92 "HgN/A
6:00 PM73 °FBroken clouds.9 mph83%29.92 "HgN/A
5:30 PM73 °FThunderstorms. Partly sunny.8 mph83%29.92 "HgN/A
5:00 PM72 °FThunderstorms. Partly sunny.2 mph88%29.92 "HgN/A
4:30 PM73 °FThunderstorms. Partly sunny.8 mph83%29.89 "HgN/A
4:00 PM81 °FThunderstorms. Broken clouds.3 mph84%29.89 "HgN/A
3:30 PM82 °FRain showers. Broken clouds.8 mph74%29.89 "HgN/A
3:00 PM88 °FScattered clouds.8 mph62%29.89 "HgN/A
2:30 PM88 °FScattered clouds.10 mph62%29.89 "HgN/A
2:00 PM84 °FBroken clouds.8 mph70%29.92 "HgN/A
1:30 PM84 °FBroken clouds.9 mph74%29.92 "HgN/A
1:00 PM82 °FLight rain. Broken clouds.8 mph79%29.92 "HgN/A
12:30 PM82 °FLight rain. Partly sunny.8 mph74%29.92 "HgN/A
12:00 PM84 °FPartly sunny.9 mph70%29.89 "HgN/A
11:30 AM84 °FBroken clouds.9 mph66%29.89 "HgN/A
11:00 AM86 °FBroken clouds.10 mph66%29.89 "HgN/A
Weather by CustomWeather, © 2015

See weather overviewHow to use our weather pages